Location: Newark
(46.7000°N, 60.6000°W)
Time: 03:10:50
(UTC+00:00)

A-11 Canister half - Pass Details

Date: 31 October 2020
Orbit: 1525 x 1683 km, 47.3° (Epoch: 23 November)

Event Time Altitude Azimuth Distance (km) Brightness Sun altitude
Rises 17:04:10 0° 219° (SW) 4,822 12.8 26.4°
Reaches altitude 10° 17:07:26 10° 214° (SSW) 3,816 12.8 26.2°
Maximum altitude 17:16:31 48° 144° (SE) 1,972 10.3 25.6°
Drops below altitude 10° 17:25:22 10° 74° (ENE) 3,721 10.7 24.9°
Sets 17:28:30 0° 69° (ENE) 4,694 11.1 24.7°
